Temp
5 5 5 4 4 3 3 2 1 -2 -0 1 1 1 0 0 -0 -0 -0 -0 -0 0 0 1 1 1 2 2 2 2 2 2 2 3 3 3 4 4
5 4 4 4 3 3 2 2 2 0 -2 1 -0 -0 -1 -1 -1 -1 -1 -1 -1 -1 -0 0 1 1 1 1 1 1 1 2 2 2 2 3 3 4
4 4 3 3 3 2 2 1 1 1 -2 -1 -1 -1 -1 -2 -2 -2 -2 -2 -1 -1 -1 -0 0 0 1 1 1 1 1 1 1 2 2 2 2 3
4 3 3 3 2 2 1 1 0 -0 -1 -2 -2 -2 -2 -2 -2 -2 -2 -2 -2 -2 -1 -1 -1 -1 -0 -0 0 0 1 1 1 1 1 2 2 2
3 3 3 2 2 1 1 0 -0 -0 -1 -1 -2 -2 -3 -3 -3 -3 -3 -3 -2 -2 -2 -2 -2 -2 -1 -1 -1 -0 -1 -0 -0 0 0 1 1 1
2 2 2 1 1 1 0 0 -0 -1 -1 -2 -3 -3 -3 -2 -2 -3 -3 -3 -3 -3 -3 -3 -2 -2 -2 -2 -2 -2 -2 -2 -1 -1 0 0 1 1
1 1 1 1 0 0 0 0 -0 -1 -1 -2 -3 -3 -2 -3 -3 -3 -3 -3 -3 -3 -3 -3 -3 -4 -4 -4 -3 -3 -3 -1 -1 -1 -0 0 0 1
0 0 0 0 -0 -0 -0 -0 -0 -0 -1 -2 -3 -3 -3 -3 -3 -3 -4 -4 -3 -3 -3 -4 -4 -4 -4 -4 -4 -3 -2 -2 -1 -1 -1 -0 0 0
-1 -1 -1 -1 -1 -1 -1 -1 -1 -1 -1 -2 -3 -3 -4 -3 -3 -4 -4 -4 -4 -4 -4 -4 -4 -4 -4 -4 -4 -4 -3 -2 -2 -1 -1 -0 -0 0
-1 -2 -2 -2 -2 -1 -1 -1 -1 -2 -2 -3 -3 -3 -3 -4 -4 -4 -4 -4 -5 -5 -5 -5 -4 -5 -5 -5 -5 -4 -3 -3 -2 -2 -2 -1 -1 -1
-2 -2 -2 -2 -2 -1 -1 -1 -2 -3 -3 -3 -3 -3 -3 -3 -4 -4 -5 -6 -5 -5 -5 -5 -5 -6 -6 -6 -4 -4 -4 -3 -3 -3 -3 -2 -2 -1
-2 -2 -3 -3 -2 -2 -1 -2 -3 -3 -3 -3 -4 -4 -4 -4 -5 -5 -5 -6 -6 -5 -4 -5 -6 -6 -5 -4 -4 -5 -5 -5 -4 -4 -3 -2 -2 -2
-3 -3 -3 -3 -2 -2 -2 -3 -3 -3 -3 -4 -5 -5 -5 -6 -6 -6 -6 -7 -6 -6 -6 -6 -6 -6 -6 -6 -5 -5 -5 -4 -5 -4 -4 -3 -2 -2
-4 -4 -4 -3 -3 -3 -4 -4 -3 -4 -5 -6 -6 -6 -6 -6 -6 -7 -7 -7 -7 -7 -7 -7 -7 -6 -6 -6 -6 -5 -5 -5 -5 -4 -4 -3 -3 -2
-4 -4 -3 -4 -5 -5 -5 -5 -5 -6 -6 -7 -7 -7 -7 -7 -7 -8 -7 -7 -7 -7 -7 -6 -7 -7 -7 -6 -6 -5 -4 -4 -4 -4 -2 -3 -3 -2
-3 -4 -5 -5 -6 -6 -6 -6 -7 -7 -7 -7 -7 -7 -8 -8 -8 -8 -8 -8 -8 -7 -6 -6 -6 -6 -6 -6 -6 -5 -4 -4 -4 -4 -3 -3 -2 -2
-4 -5 -6 -7 -7 -7 -7 -7 -7 -7 -8 -8 -8 -8 -8 -8 -8 -8 -8 -8 -7 -7 -7 -6 -6 -6 -6 -6 -5 -5 -4 -4 -4 -3 -3 -3 -2 -2
-6 -7 -8 -8 -8 -8 -8 -8 -8 -8 -8 -8 -8 -8 -8 -8 -8 -8 -7 -8 -8 -7 -7 -7 -7 -6 -5 -4 -4 -4 -4 -3 -3 -3 -3 -3 -2 -1
-7 -8 -8 -8 -8 -8 -9 -9 -9 -9 -9 -9 -9 -8 -8 -8 -7 -8 -8 -8 -7 -7 -7 -7 -6 -5 -5 -5 -3 -2 -3 -3 -3 -3 -3 -2 -2 -2
-8 -8 -9 -9 -9 -9 -9 -9 -9 -9 -9 -9 -8 -8 -8 -8 -8 -7 -7 -7 -7 -6 -6 -6 -6 -6 -5 -4 -3 -3 -4 -4 -3 -3 -2 -2 -2 -2
-9 -9 -9 -9 -9 -9 -9 -9 -9 -9 -8 -8 -9 -9 -8 -8 -8 -8 -7 -6 -5 -6 -6 -6 -5 -4 -4 -4 -4 -3 -3 -2 -2 -2 -2 -2 -2 -2
-9 -9 -9 -9 -9 -9 -9 -9 -9 -9 -9 -9 -9 -9 -8 -8 -8 -7 -7 -6 -6 -6 -6 -5 -5 -4 -4 -4 -4 -4 -3 -2 -2 -2 -2 -2 -2 -2
-9 -9 -9 -9 -9 -9 -9 -9 -10 -9 -9 -9 -8 -8 -8 -8 -7 -7 -6 -6 -6 -5 -5 -4 -4 -3 -4 -4 -3 -3 -3 -2 -2 -2 -1 0 -0 -0
Height
810 812 813 813 813 814 813 814 813 812 803 800 800 798 795 792 790 787 783 779 776 772 768 764 761 757 753 749 746 743 740 737 733 730 727 724 721 719
809 811 812 812 812 812 811 811 809 808 805 798 796 793 790 788 785 781 776 772 768 764 760 756 753 749 745 742 738 734 731 727 724 721 718 715 712 710
808 809 810 810 809 809 808 806 804 804 799 793 792 789 785 782 778 775 770 766 761 758 754 750 746 742 737 733 729 726 722 719 715 711 708 706 703 702
807 807 807 807 806 805 803 802 801 800 796 788 786 783 780 776 772 768 764 760 755 751 747 743 739 735 730 726 722 718 714 710 706 703 700 697 694 693
805 804 804 804 803 801 800 798 796 794 791 786 780 778 774 770 765 761 757 751 747 744 740 735 731 726 723 718 714 710 706 702 698 694 691 688 686 684
802 802 802 801 799 797 796 794 791 788 785 781 777 773 771 766 761 755 749 746 738 736 732 726 723 718 714 710 706 701 697 694 690 686 682 679 676 673
799 799 799 797 796 794 792 789 786 783 780 777 773 770 766 760 756 751 745 738 730 728 722 719 715 709 704 700 696 691 687 684 680 675 672 668 665 663
797 796 795 793 791 789 787 785 782 778 774 772 768 764 760 756 751 747 740 734 723 720 716 711 709 701 696 691 687 682 677 674 669 665 662 658 655 653
794 792 790 789 787 784 781 779 776 774 771 768 762 759 754 750 745 739 734 728 722 714 712 703 700 692 688 683 678 672 668 664 660 656 653 650 646 643
791 790 788 785 782 779 775 772 770 767 764 761 757 752 748 743 739 735 729 723 717 711 708 697 692 684 679 674 667 662 659 656 652 649 645 641 638 634
789 787 785 781 778 775 770 766 762 759 756 753 749 745 742 738 734 730 723 718 709 704 699 694 684 677 671 662 657 654 652 649 644 639 635 632 629 625
786 783 780 778 774 770 766 761 756 753 748 744 741 737 733 730 727 724 719 713 706 697 692 690 682 679 661 654 651 647 641 637 634 630 626 622 619 616
782 779 776 773 770 766 762 757 753 748 744 740 736 731 726 722 719 715 712 709 702 695 687 687 678 674 671 654 643 639 635 626 623 617 613 611 609 608
779 776 773 769 765 761 757 754 749 745 741 737 733 727 721 717 711 707 703 699 695 688 680 680 673 668 661 651 641 630 625 619 615 608 604 600 598 596
776 773 769 766 762 758 754 750 747 742 738 733 729 722 717 712 706 700 696 691 685 678 672 668 664 658 653 645 636 626 618 610 605 601 595 592 588 584
771 768 766 762 758 755 751 747 743 739 735 730 725 718 712 707 701 696 690 684 678 667 663 659 654 650 643 637 630 619 613 608 597 592 587 581 577 574
769 765 761 758 754 751 748 744 739 735 730 725 720 714 708 702 696 690 684 677 672 662 654 647 644 639 634 629 621 611 602 595 588 582 580 570 565 561
766 763 760 757 754 750 745 739 735 731 726 722 716 710 704 697 690 684 679 673 666 658 650 642 636 629 621 615 612 601 592 585 579 575 570 563 550 546
765 761 758 754 751 747 742 738 732 727 722 717 711 704 698 692 686 679 672 667 659 652 645 638 632 626 616 604 596 597 589 578 571 564 559 553 545 536
763 759 756 751 747 743 738 734 729 723 718 712 706 700 694 688 680 674 667 661 654 646 638 632 626 619 612 601 588 578 577 570 564 554 546 540 534 527
760 757 753 748 744 739 735 731 726 720 715 709 702 696 689 683 675 669 662 656 649 641 633 625 618 613 605 596 586 572 560 560 555 547 538 531 522 515
758 753 748 745 740 736 731 727 722 715 709 704 697 691 684 678 671 664 657 650 642 636 628 619 611 605 597 591 580 569 559 548 541 536 530 524 517 506
755 750 745 741 736 732 728 723 718 711 706 700 693 686 680 673 667 660 652 645 638 631 624 615 606 599 592 585 576 565 555 545 536 527 517 511 506 501
Wind_Speed
2 2 3 4 5 6 7 8 5 3 5 4 6 20 26 28 27 28 31 32 29 31 31 29 33 33 33 34 30 32 32 32 34 34 33 34 34 34
1 3 5 6 7 9 10 11 11 13 4 11 22 27 27 27 31 30 33 30 31 31 31 30 31 30 30 33 35 33 33 34 34 34 34 34 34 34
3 6 7 8 10 10 10 13 15 15 11 20 22 24 28 31 31 33 32 31 32 29 29 30 30 33 34 34 34 34 34 34 34 34 34 34 33 33
5 7 9 10 12 13 14 14 15 15 20 21 22 25 26 28 31 33 31 28 31 30 28 32 31 33 33 32 32 34 33 34 35 36 36 35 34 34
6 8 10 11 13 14 14 15 18 21 21 26 25 25 27 29 29 28 29 31 29 28 30 31 31 29 29 33 32 32 34 33 32 32 32 33 32 32
7 9 11 12 12 13 16 19 18 19 22 25 21 22 23 27 27 26 26 28 33 29 29 30 26 30 31 32 32 32 31 30 30 30 32 32 33 33
9 10 11 13 14 15 17 18 21 22 24 21 16 20 24 23 22 25 26 31 36 30 27 26 27 33 32 31 31 31 30 31 33 33 32 32 34 33
11 13 13 14 17 15 18 19 20 24 21 19 20 21 24 25 24 24 28 27 12 27 18 32 28 32 31 31 30 33 35 33 31 33 31 30 29 29
12 14 16 14 16 19 20 21 22 20 23 27 25 24 25 28 30 28 25 21 26 34 28 30 30 31 32 32 33 34 34 32 29 27 26 28 30 31
11 13 17 20 19 19 22 23 23 25 26 25 26 29 29 28 26 26 27 26 29 32 27 21 31 33 31 32 35 31 28 26 26 29 31 28 28 29
13 16 18 20 20 21 24 26 24 23 25 25 25 25 26 29 25 26 24 21 20 25 28 24 19 28 32 33 24 23 23 30 31 29 29 29 30 28
19 19 21 20 22 22 26 25 21 26 30 27 25 31 29 28 23 23 25 21 22 17 16 13 25 21 9 19 16 33 32 31 29 31 30 28 28 27
21 23 23 21 23 26 25 24 23 26 21 26 29 27 28 27 26 26 26 24 25 24 34 26 22 26 17 21 26 28 33 36 33 34 32 28 26 25
21 23 23 22 25 24 21 20 21 22 26 23 22 24 23 26 30 30 33 30 30 33 37 33 24 26 25 23 18 29 33 36 31 32 33 31 28 27
20 21 22 23 21 19 20 20 19 22 21 21 21 24 26 29 34 30 31 33 32 34 33 31 31 32 28 26 23 31 29 33 35 30 28 28 29 29
22 20 20 21 19 18 19 21 21 20 20 21 23 28 29 27 28 28 27 28 27 30 31 28 27 29 29 29 28 29 32 20 31 33 31 31 31 29
22 20 22 20 20 19 20 20 22 22 21 23 24 26 26 26 27 28 27 27 22 26 29 33 29 28 31 33 29 31 30 31 31 31 28 31 31 31
17 18 17 17 17 19 20 24 23 23 23 25 26 25 26 26 27 27 25 24 23 25 26 30 29 29 27 23 25 30 31 28 31 30 29 26 32 31
15 16 16 17 18 20 21 22 26 28 29 25 26 27 27 26 27 27 25 23 23 24 27 28 24 20 12 13 25 21 25 31 31 30 28 26 26 34
17 18 19 19 19 21 23 24 27 28 27 27 27 27 28 25 26 24 25 24 23 24 24 24 21 22 13 15 18 38 28 28 26 28 29 30 31 33
19 19 20 21 21 23 25 26 26 27 27 28 29 27 28 25 26 25 26 28 28 23 19 22 27 30 32 30 16 22 33 27 27 29 28 24 20 22
21 22 23 23 24 26 27 28 29 29 29 28 29 29 29 27 26 26 25 24 24 23 25 29 30 28 24 18 12 21 25 32 34 29 28 28 20 7
24 24 24 26 27 27 27 28 27 29 29 30 30 30 29 27 28 27 26 26 25 24 22 25 27 25 23 21 23 19 25 28 27 28 32 30 28 27
Wind_Direction
164 245 277 280 276 282 284 287 264 296 307 290 304 308 320 320 316 311 311 309 305 305 304 301 300 299 297 295 295 294 292 289 286 284 281 279 277 275
221 270 278 280 285 290 290 288 286 276 266 287 303 312 318 313 311 310 310 308 307 308 305 303 301 299 299 297 296 295 293 290 287 284 282 280 278 276
248 270 277 285 292 294 290 295 296 291 281 297 305 310 307 309 312 313 314 307 306 303 303 301 301 300 298 298 297 296 294 292 289 287 284 281 278 278
275 281 288 291 289 297 297 298 291 290 298 299 306 304 302 308 307 309 309 301 296 300 302 302 301 300 298 297 297 296 295 294 293 288 285 282 280 278
290 296 295 291 293 298 293 289 292 298 297 289 294 301 303 308 309 303 300 300 301 299 301 301 301 300 301 300 298 296 294 292 290 287 285 283 280 278
297 303 303 301 304 304 301 298 297 296 293 293 289 295 304 309 304 302 302 304 302 302 299 298 300 299 299 298 297 296 295 293 290 287 285 284 282 279
316 313 310 307 303 301 301 305 305 299 299 295 286 302 304 307 305 305 299 303 301 302 300 296 301 298 296 297 295 296 296 295 293 290 287 285 283 281
329 325 319 312 310 302 301 299 297 300 304 303 299 300 302 300 300 298 296 300 300 311 311 302 301 296 295 293 295 296 295 296 293 292 288 285 283 281
335 328 323 324 316 313 309 301 299 299 298 302 301 295 294 299 300 295 287 287 294 299 304 296 301 295 295 294 295 295 295 295 295 293 290 290 288 285
330 328 325 323 323 316 311 311 308 310 309 303 295 297 296 297 296 302 302 302 297 295 297 289 299 292 297 296 295 294 294 296 295 294 295 291 288 285
333 332 327 323 321 314 312 310 311 307 311 304 300 298 300 302 301 305 300 301 294 297 301 295 292 299 301 292 297 296 295 297 296 296 295 292 289 286
331 330 330 322 319 315 315 318 316 318 317 316 311 311 312 314 307 300 297 287 291 300 300 304 301 310 304 293 296 301 303 300 297 296 294 290 289 287
330 328 327 322 319 318 316 317 315 314 319 317 317 313 312 310 305 304 299 290 289 284 288 299 296 294 281 294 298 298 298 300 298 298 297 292 286 284
324 323 322 320 321 318 317 315 314 316 317 316 311 306 306 304 305 305 308 303 295 283 293 292 279 286 286 287 290 298 297 295 293 293 290 291 289 287
322 319 320 322 323 321 320 319 319 322 319 312 306 303 302 300 305 302 305 310 306 303 296 295 283 279 275 275 281 287 292 298 295 286 292 290 289 289
330 327 325 327 327 324 325 329 328 321 314 304 300 301 302 303 302 304 301 302 298 296 302 294 287 282 272 273 277 282 287 282 287 288 287 289 290 283
326 327 333 335 329 327 325 323 320 317 313 312 307 306 305 305 303 304 300 298 291 297 301 303 303 293 282 273 276 280 282 282 282 283 289 287 288 283
334 339 329 326 322 321 322 318 316 315 314 312 308 304 302 302 303 304 301 297 291 295 296 298 303 304 302 289 270 272 281 282 286 289 288 281 284 285
339 327 320 321 318 316 314 312 309 314 317 311 307 304 303 302 305 302 300 297 294 294 293 296 297 297 298 296 300 288 280 284 287 286 282 277 277 284
336 327 319 318 315 313 313 312 312 314 314 312 310 308 306 302 302 302 300 298 297 297 299 301 293 287 286 295 303 303 295 276 279 283 286 288 283 285
329 322 320 317 316 316 316 315 312 310 312 310 309 307 305 304 301 300 299 302 306 301 296 298 298 304 300 297 291 294 303 300 287 284 288 288 288 289
327 323 323 320 320 321 322 318 313 312 312 311 308 307 308 307 303 303 303 301 300 297 294 296 305 305 300 294 291 294 299 310 311 307 301 287 282 279
333 328 324 324 326 326 321 316 312 310 310 311 310 310 309 307 308 304 301 300 298 299 305 312 312 312 303 301 301 302 305 310 315 319 315 328 320 316